[[{"header":{"parameterUnit":"m.s-1","parameterCategory":1,"la1":30.2991,"la2":30.254,"lo1":-89.0895,"lo2":-89.0444,"dy":0.0017,"dx":0.0017,"nx":28,"ny":28,"refTime":"2023-08-30T09:00:00:Z","depth":0,"parameterNumber":2,"parameterNumberName":"U-component_of_WINDS"},"data":[0,0,0,0,0,0,0,0,0,0,0,0,0,0,0,0,0,0,0,0,0,0,0,0,0,0,0,0,0,0,0,0,0,0,0,0,0,0,0,0,0,0,0,0,0,0,0,0,0,0,0,0,0,0,0,0,0,0,0.5699,0.57,0,0.5754,0.5754,0.5755,0.5786,0.5786,0.5786,0.5786,0.5841,0.5843,0.5844,0,0,0,0,0,0,0,0,0,0,0,0,0,0.562,0.5621,0.5699,0.57,0.5701,0.5753,0.5754,0.5755,0.5786,0.5786,0.5786,0.5786,0.5841,0.5842,0.5844,0,0,0,0,0,0,0,0,0,0,0,0,0,0.5662,0.5622,0.5699,0.5722,0.5725,0.5753,0.5754,0.5755,0.5786,0.5786,0.5786,0.5786,0.584,0.5842,0.5844,0.5854,0,0,0.5851,0.5851,0,0,0,0,0,0,0,0,0.566,0.5665,0.5718,0.5721,0.5724,0.5763,0.5747,0.5788,0.5786,0.5762,0.5786,0.5786,0.5815,0.5819,0.5829,0.5856,0.5859,0.5851,0.5852,0.5853,0.5853,0,0,0,0,0,0,0,0.5657,0.5663,0.5721,0.5719,0.5722,0.5729,0.5735,0.5755,0.5787,0.5764,0.5767,0.5773,0.5817,0.5827,0.5831,0.586,0.5851,0.5852,0.5854,0.5855,0.5896,0.5896,0,0,0,0,0,0,0.565,0.566,0.5719,0.5722,0.5691,0.573,0.5737,0.575,0.5787,0.5793,0.5773,0.5774,0.5823,0.5828,0.5833,0.5845,0.5853,0.5855,0.5856,0.5896,0.5896,0.5896,0,0,0,0,0,0,0.5648,0.5655,0.5717,0.5692,0.57,0.5732,0.5746,0.5751,0.5762,0.5793,0.5799,0.5777,0.5824,0.583,0.5848,0.5848,0.5856,0.5858,0.5896,0.5896,0.5896,0.5871,0,0,0,0,0,0,0.5646,0.5654,0.5659,0.5692,0.5701,0.5732,0.5746,0.5752,0.5765,0.5768,0.5799,0.5805,0.5824,0.5845,0.585,0.5851,0.5859,0.5896,0.5896,0.5896,0.5872,0.587,0.5868,0,0,0,0,0,0.5643,0.565,0.5659,0.5666,0.5708,0.5732,0.5737,0.576,0.5765,0.5769,0.5789,0.5804,0.5847,0.5846,0.5853,0.5854,0.5896,0.5896,0.5896,0.5873,0.587,0.5868,0,0,0,0,0,0,0.5617,0.5655,0.5665,0.5683,0.5704,0.5737,0.5743,0.5757,0.5776,0.5777,0.5804,0.5811,0.5826,0.5842,0.5841,0.5864,0.5873,0.5874,0.5853,0.5851,0.585,0.5845,0.5861,0,0,0,0,0,0.5613,0.563,0.5662,0.5675,0.5684,0.5712,0.5723,0.5738,0.5761,0.577,0.5791,0.5812,0.583,0.5842,0.586,0.5874,0.5881,0.5878,0.5876,0.5874,0.5875,0.5882,0.5881,0.5894,0.5894,0.5894,0,0,0.5606,0.5628,0.5637,0.567,0.5688,0.5703,0.5719,0.5735,0.5747,0.5772,0.5791,0.5807,0.5832,0.5847,0.5856,0.5861,0.5872,0.5874,0.5872,0.5874,0.5881,0.588,0.5879,0.5894,0.5894,0.5894,0,0,0.56,0.5619,0.5631,0.5649,0.5675,0.5693,0.5696,0.5726,0.5738,0.5757,0.5775,0.5789,0.582,0.5837,0.5849,0.5848,0.5861,0.5853,0.5843,0.585,0.5849,0.5848,0.5846,0.5845,0.5853,0.5853,0.5853,0,0.5587,0.5612,0.5636,0.5651,0.5664,0.5687,0.5698,0.5714,0.5745,0.5753,0.5759,0.5797,0.5815,0.5835,0.5834,0.5844,0.5847,0.585,0.5847,0.5846,0.5846,0.5845,0.5844,0.5852,0.5852,0.5852,0.5852,0,0.5595,0.5612,0.5618,0.5647,0.5661,0.5674,0.5699,0.571,0.5723,0.574,0.5758,0.5781,0.5804,0.5809,0.5823,0.583,0.5832,0.5842,0.5851,0.5843,0.5842,0.5842,0.585,0.5851,0.5851,0.5851,0,0,0.5576,0.5616,0.5618,0.5631,0.5661,0.5674,0.5687,0.5709,0.5718,0.5738,0.5749,0.5774,0.5783,0.5797,0.5812,0.5818,0.5814,0.5827,0.5828,0.5823,0.5821,0.5813,0.5813,0.5823,0.5823,0.5823,0.5819,0,0.5574,0.56,0.562,0.5638,0.5653,0.5674,0.5685,0.5704,0.572,0.5735,0.5752,0.5769,0.5779,0.5788,0.5794,0.5813,0.5814,0.5813,0.5833,0.5833,0.5826,0.5813,0.5805,0.58,0.5819,0.5819,0.5819,0,0.5577,0.5595,0.5614,0.5641,0.5648,0.5658,0.5679,0.5692,0.5714,0.5725,0.5739,0.5755,0.5769,0.5777,0.5796,0.5795,0.5804,0.5814,0.5815,0.5817,0.5825,0.5814,0.58,0.5799,0.5819,0.5819,0.5819,0,0.556,0.5589,0.5604,0.5614,0.5646,0.5652,0.5666,0.5688,0.5699,0.5717,0.5724,0.5744,0.5754,0.5768,0.5789,0.5792,0.5805,0.5815,0.5814,0.5813,0.5816,0.5815,0.5802,0.5822,0.5822,0.5822,0.5822,0,0.5556,0.5566,0.5597,0.5606,0.5618,0.5641,0.5651,0.5667,0.5685,0.5697,0.5716,0.5726,0.5753,0.5766,0.5782,0.5794,0.5799,0.5808,0.5812,0.5806,0.5805,0.5812,0.5813,0.5822,0.5822,0.5822,0.5822,0,0.5539,0.556,0.5578,0.5606,0.5613,0.562,0.5644,0.5653,0.5669,0.5683,0.5688,0.5713,0.5729,0.5751,0.5774,0.5785,0.5795,0.5802,0.5788,0.579,0.5788,0.5787,0.5778,0.5778,0.5798,0.5798,0.5798,0,0.5536,0.5544,0.5572,0.5581,0.5594,0.5609,0.562,0.5642,0.5652,0.5676,0.5682,0.57,0.5715,0.574,0.576,0.5778,0.5785,0.578,0.5787,0.5781,0.5784,0.5783,0.5783,0.5778,0.5778,0.5778,0.5777,0,0.5526,0.5536,0.5551,0.557,0.5582,0.5598,0.5615,0.5621,0.5646,0.5657,0.5674,0.5685,0.5708,0.5725,0.5745,0.5758,0.5772,0.5775,0.5775,0.5769,0.5761,0.5764,0.5782,0.5775,0.5775,0.5776,0.5776,0.5776,0.5516,0.5524,0.5544,0.556,0.5575,0.5589,0.5598,0.5615,0.5629,0.5649,0.5661,0.5677,0.5696,0.5724,0.5737,0.5749,0.5754,0.5755,0.5755,0.5755,0.5753,0.5759,0.5753,0.5753,0.5753,0.5753,0.5753,0,0.5507,0.5521,0.5535,0.5557,0.5569,0.558,0.5598,0.5608,0.5621,0.5638,0.5652,0.567,0.5686,0.5707,0.5724,0.573,0.5736,0.5733,0.5733,0.5736,0.5748,0.5745,0.5728,0.5728,0.5728,0.5728,0.5728,0.5728,0.5504,0.5517,0.5528,0.5548,0.5562,0.5577,0.5586,0.5599,0.5613,0.5632,0.5645,0.5658,0.5676,0.5694,0.5709,0.5714,0.572,0.5715,0.5722,0.5733,0.5735,0.5737,0.5735,0.5716,0.5716,0.5709,0.5709,0.5709]},{"header":{"parameterUnit":"m.s-1","parameterCategory":1,"la1":30.2991,"la2":30.254,"lo1":-89.0895,"lo2":-89.0444,"dy":0.0017,"dx":0.0017,"nx":28,"ny":28,"refTime":"2023-08-30T09:00:00:Z","depth":0,"parameterNumber":3,"parameterNumberName":"V-component_of_WINDS"},"data":[0,0,0,0,0,0,0,0,0,0,0,0,0,0,0,0,0,0,0,0,0,0,0,0,0,0,0,0,0,0,0,0,0,0,0,0,0,0,0,0,0,0,0,0,0,0,0,0,0,0,0,0,0,0,0,0,0,0,2.0255,2.0255,0,2.0203,2.0203,2.0202,2.0169,2.0168,2.0168,2.0168,2.0112,2.0111,2.011,0,0,0,0,0,0,0,0,0,0,0,0,0,2.0323,2.0322,2.0255,2.0255,2.0254,2.0203,2.0203,2.0202,2.0169,2.0168,2.0168,2.0168,2.0113,2.0111,2.0109,0,0,0,0,0,0,0,0,0,0,0,0,0,2.0285,2.0322,2.0256,2.0231,2.0229,2.0204,2.0203,2.0202,2.0169,2.0168,2.0168,2.0168,2.0113,2.0111,2.0109,2.0103,0,0,2.0103,2.0102,0,0,0,0,0,0,0,0,2.0287,2.0282,2.0236,2.0233,2.023,2.0192,2.0206,2.0169,2.0169,2.0191,2.0168,2.0168,2.0139,2.0135,2.0126,2.01,2.0098,2.0103,2.0102,2.0101,2.01,0,0,0,0,0,0,0,2.029,2.0284,2.0235,2.0235,2.0232,2.0222,2.0217,2.0199,2.0167,2.0189,2.0187,2.0181,2.0137,2.0128,2.0124,2.0097,2.0103,2.0101,2.01,2.0099,2.0063,2.0064,0,0,0,0,0,0,2.0297,2.0287,2.0236,2.0233,2.0259,2.0221,2.0215,2.0205,2.0167,2.0162,2.0182,2.018,2.0131,2.0126,2.0122,2.0111,2.0101,2.0099,2.0098,2.0063,2.0064,2.0064,0,0,0,0,0,0,2.0298,2.0292,2.0238,2.0259,2.0252,2.0221,2.0209,2.0204,2.0194,2.0162,2.0156,2.0178,2.0131,2.0125,2.0108,2.0109,2.0098,2.0096,2.0063,2.0063,2.0064,2.0091,0,0,0,0,0,0,2.03,2.0293,2.0291,2.026,2.0251,2.0226,2.0209,2.0203,2.0191,2.0188,2.0156,2.0151,2.013,2.0111,2.0106,2.0106,2.0095,2.0063,2.0063,2.0064,2.009,2.0092,2.0094,0,0,0,0,0,2.0303,2.03,2.0291,2.0285,2.0248,2.0226,2.0221,2.0198,2.0191,2.0188,2.0168,2.0152,2.011,2.011,2.0104,2.0103,2.0063,2.0063,2.0064,2.0089,2.0092,2.0094,0,0,0,0,0,0,2.0332,2.0296,2.0285,2.0273,2.0253,2.0221,2.0216,2.0202,2.0183,2.0181,2.0153,2.0146,2.0132,2.0116,2.0116,2.0095,2.0084,2.0084,2.0106,2.0108,2.011,2.0114,2.0093,0,0,0,0,0,2.0337,2.0324,2.0293,2.0284,2.0275,2.0248,2.0238,2.0222,2.02,2.0191,2.0169,2.0147,2.0129,2.0118,2.01,2.0088,2.008,2.0085,2.0087,2.0089,2.0088,2.008,2.0081,2.0065,2.0065,2.0065,0,0,2.0347,2.0326,2.0319,2.029,2.0273,2.0258,2.0241,2.0227,2.0216,2.0188,2.0171,2.0155,2.0129,2.0114,2.0107,2.0101,2.0091,2.0089,2.0091,2.0089,2.0081,2.0082,2.0083,2.0066,2.0066,2.0066,0,0,2.0358,2.0341,2.0332,2.0315,2.029,2.0272,2.027,2.024,2.0228,2.0211,2.019,2.0176,2.0146,2.0128,2.0115,2.012,2.0104,2.0115,2.0126,2.0119,2.012,2.0121,2.0121,2.0122,2.0115,2.0115,2.0115,0,2.0373,2.0352,2.0329,2.0316,2.0303,2.028,2.027,2.0254,2.0224,2.0216,2.021,2.0171,2.0152,2.0133,2.0134,2.0125,2.0121,2.0118,2.0122,2.0122,2.0123,2.0123,2.0124,2.0116,2.0116,2.0116,2.0116,0,2.0371,2.0357,2.0353,2.0325,2.0312,2.0301,2.0275,2.0265,2.025,2.0233,2.0215,2.0192,2.0168,2.0163,2.0148,2.0141,2.0138,2.0127,2.0116,2.0126,2.0126,2.0126,2.0118,2.0118,2.0117,2.0117,0,0,2.0398,2.0358,2.0357,2.0344,2.0314,2.0302,2.029,2.0268,2.0259,2.0239,2.0227,2.0203,2.0192,2.0178,2.0161,2.0155,2.0159,2.0144,2.0143,2.0147,2.0149,2.0156,2.0157,2.0149,2.0149,2.0149,2.0151,0,2.0403,2.038,2.036,2.0344,2.033,2.0307,2.0296,2.0276,2.026,2.0245,2.0226,2.0209,2.0197,2.0188,2.0181,2.016,2.0159,2.016,2.0136,2.0136,2.0142,2.0157,2.0165,2.0168,2.0151,2.0151,2.0151,0,2.0406,2.0388,2.0371,2.0343,2.0337,2.0327,2.0305,2.0292,2.0269,2.0257,2.0241,2.0224,2.0208,2.02,2.0178,2.0179,2.0168,2.0157,2.0156,2.0152,2.0143,2.0152,2.0168,2.0168,2.015,2.015,2.015,0,2.0426,2.0398,2.0384,2.0373,2.0341,2.0334,2.032,2.0297,2.0285,2.0266,2.0257,2.0236,2.0224,2.0208,2.0185,2.0181,2.0166,2.0155,2.0154,2.0155,2.0151,2.0151,2.0164,2.0146,2.0146,2.0146,2.0146,0,2.0434,2.0424,2.0392,2.0383,2.0372,2.0348,2.0337,2.032,2.03,2.0287,2.0267,2.0255,2.0226,2.021,2.0192,2.0176,2.0171,2.0161,2.0156,2.0162,2.0163,2.0154,2.0152,2.0146,2.0146,2.0146,2.0146,0,2.0453,2.0432,2.0415,2.0386,2.0378,2.0371,2.0345,2.0335,2.0318,2.0302,2.0297,2.0269,2.025,2.0226,2.0198,2.0186,2.0172,2.0165,2.018,2.0177,2.0177,2.0177,2.0184,2.0183,2.0166,2.0167,2.0167,0,2.0459,2.0451,2.0421,2.0412,2.0398,2.0383,2.0371,2.0347,2.0335,2.0309,2.0302,2.0282,2.0264,2.0234,2.0211,2.019,2.0181,2.0185,2.0178,2.0184,2.018,2.0181,2.0179,2.0187,2.0187,2.0187,2.0187,0,2.0471,2.0461,2.0445,2.0425,2.0411,2.0394,2.0376,2.0369,2.0342,2.0329,2.031,2.0296,2.0269,2.0248,2.0224,2.0209,2.0193,2.019,2.0189,2.0194,2.0203,2.0197,2.0184,2.019,2.0189,2.0189,2.0189,2.0189,2.0483,2.0475,2.0453,2.0435,2.0419,2.0403,2.0392,2.0374,2.0358,2.0334,2.0321,2.0302,2.0279,2.0246,2.0231,2.0215,2.0209,2.0207,2.0206,2.0206,2.0208,2.0206,2.021,2.021,2.021,2.021,2.021,0,2.0493,2.0478,2.0462,2.0438,2.0424,2.0412,2.0392,2.0381,2.0364,2.0345,2.0328,2.0305,2.0285,2.0261,2.0239,2.0231,2.0224,2.0226,2.0226,2.0222,2.0214,2.0217,2.0233,2.0233,2.0233,2.0233,2.0233,2.0233,2.0496,2.0482,2.0469,2.0446,2.0431,2.0413,2.0402,2.0387,2.0371,2.0347,2.0331,2.0315,2.0293,2.027,2.0251,2.0244,2.0237,2.0241,2.0233,2.0225,2.0223,2.0221,2.0224,2.024,2.024,2.0242,2.0242,2.0242]}]]